| time (UTC) | temp F | wind direction | speed MPH | gust MPH | rain 1hr in | rain 24hr in | rain mn in | humidity % | barometer mb |
| 20260905043526 | 87 | 213 | 6.0 | 16.0 | 0.00 | 0.00 | 0.00 | 73 | 1007.2 |
| 20260905043128 | 87 | 220 | 7.0 | 16.0 | 0.00 | 0.00 | 0.00 | 73 | 1007.2 |
| 20260905043026 | 87 | 239 | 7.0 | 19.0 | 0.00 | 0.00 | 0.00 | 72 | 1007.3 |
| 20260905042617 | 87 | 246 | 8.0 | 18.0 | 0.00 | 0.00 | 0.00 | 72 | 1007.4 |
| 20260905042526 | 87 | 196 | 7.0 | 18.0 | 0.00 | 0.00 | 0.00 | 72 | 1007.3 |
| 20260905042107 | 88 | 243 | 11.0 | 16.0 | 0.00 | 0.00 | 0.00 | 71 | 1007.4 |
| 20260905042026 | 88 | 214 | 9.0 | 16.0 | 0.00 | 0.00 | 0.00 | 71 | 1007.4 |
| 20260905041557 | 87 | 224 | 8.0 | 18.0 | 0.00 | 0.00 | 0.00 | 71 | 1007.4 |
| 20260905041526 | 87 | 225 | 8.0 | 18.0 | 0.00 | 0.00 | 0.00 | 71 | 1007.4 |
| 20260905041047 | 88 | 245 | 8.0 | 17.0 | 0.00 | 0.00 | 0.00 | 70 | 1007.4 |
| 20260905041026 | 88 | 190 | 8.0 | 17.0 | 0.00 | 0.00 | 0.00 | 70 | 1007.3 |
| 20260905040536 | 88 | 232 | 10.0 | 15.0 | 0.00 | 0.00 | 0.00 | 70 | 1007.3 |
| 20260905040525 | 88 | 248 | 9.0 | 15.0 | 0.00 | 0.00 | 0.00 | 70 | 1007.4 |
| 20260905040028 | 88 | 212 | 6.0 | 15.0 | 0.00 | 0.00 | 0.00 | 71 | 1007.4 |
| 20260905040026 | 88 | 181 | 6.0 | 15.0 | 0.00 | 0.00 | 0.00 | 71 | 1007.4 |
| 20260905035525 | 87 | 211 | 9.0 | 17.0 | 0.00 | 0.00 | 0.00 | 71 | 1007.5 |
| 20260905035517 | 87 | 231 | 8.0 | 17.0 | 0.00 | 0.00 | 0.00 | 71 | 1007.4 |
| 20260905035026 | 87 | 115 | 9.0 | 18.0 | 0.00 | 0.00 | 0.00 | 71 | 1007.5 |
| 20260905035007 | 87 | 257 | 7.0 | 18.0 | 0.00 | 0.00 | 0.00 | 71 | 1007.5 |
| 20260905034526 | 87 | 207 | 6.0 | 15.0 | 0.00 | 0.00 | 0.00 | 72 | 1007.6 |
| 20260905034457 | 87 | 225 | 5.0 | 15.0 | 0.00 | 0.00 | 0.00 | 72 | 1007.6 |
| 20260905034025 | 87 | 272 | 7.0 | 15.0 | 0.00 | 0.00 | 0.00 | 72 | 1007.6 |
| 20260905033947 | 87 | 156 | 7.0 | 15.0 | 0.00 | 0.00 | 0.00 | 71 | 1007.6 |
| 20260905033526 | 87 | 313 | 5.0 | 15.0 | 0.00 | 0.00 | 0.00 | 72 | 1007.6 |
| 20260905033437 | 87 | 277 | 7.0 | 15.0 | 0.00 | 0.00 | 0.00 | 72 | 1007.6 |
| 20260905033025 | 87 | 227 | 8.0 | 15.0 | 0.00 | 0.00 | 0.00 | 72 | 1007.6 |
| 20260905032928 | 87 | 265 | 7.0 | 15.0 | 0.00 | 0.00 | 0.00 | 72 | 1007.6 |
| 20260905032526 | 87 | 264 | 6.0 | 14.0 | 0.00 | 0.00 | 0.00 | 72 | 1007.6 |
| 20260905032417 | 87 | 235 | 7.0 | 14.0 | 0.00 | 0.00 | 0.00 | 72 | 1007.7 |
| 20260905032025 | 87 | 295 | 5.0 | 15.0 | 0.00 | 0.00 | 0.00 | 71 | 1007.7 |
| 20260905031907 | 87 | 197 | 6.0 | 14.0 | 0.00 | 0.00 | 0.00 | 71 | 1007.7 |
| 20260905031526 | 87 | 216 | 7.0 | 12.0 | 0.00 | 0.00 | 0.00 | 71 | 1007.8 |
| 20260905031357 | 87 | 216 | 3.0 | 11.0 | 0.00 | 0.00 | 0.00 | 72 | 1007.8 |
| 20260905031025 | 87 | 300 | 4.0 | 17.0 | 0.00 | 0.00 | 0.00 | 72 | 1007.8 |
| 20260905030846 | 86 | 235 | 6.0 | 18.0 | 0.00 | 0.00 | 0.00 | 72 | 1007.8 |
| 20260905030525 | 86 | 280 | 10.0 | 18.0 | 0.00 | 0.00 | 0.00 | 72 | 1007.8 |
| 20260905030337 | 87 | 205 | 9.0 | 15.0 | 0.00 | 0.00 | 0.00 | 72 | 1007.8 |
| 20260905030026 | 87 | 252 | 7.0 | 15.0 | 0.00 | 0.00 | 0.00 | 71 | 1007.8 |
| 20260905025826 | 87 | 250 | 6.0 | 11.0 | 0.00 | 0.00 | 0.00 | 72 | 1007.7 |
| 20260905025525 | 87 | 38 | 4.0 | 11.0 | 0.00 | 0.00 | 0.00 | 74 | 1007.8 |
| 20260905025317 | 86 | 230 | 7.0 | 11.0 | 0.00 | 0.00 | 0.00 | 74 | 1007.7 |
| 20260905025025 | 86 | 246 | 6.0 | 15.0 | 0.00 | 0.00 | 0.00 | 75 | 1007.7 |
| 20260905024807 | 85 | 279 | 9.0 | 15.0 | 0.00 | 0.00 | 0.00 | 76 | 1007.7 |
| 20260905024525 | 85 | 250 | 7.0 | 14.0 | 0.00 | 0.00 | 0.00 | 76 | 1007.7 |
| 20260905024256 | 85 | 282 | 5.0 | 12.0 | 0.00 | 0.00 | 0.00 | 75 | 1007.8 |
| 20260905024025 | 85 | 162 | 7.0 | 12.0 | 0.00 | 0.00 | 0.00 | 75 | 1007.8 |
| 20260905023747 | 85 | 185 | 6.0 | 14.0 | 0.00 | 0.00 | 0.00 | 75 | 1007.7 |
| 20260905023526 | 85 | 237 | 6.0 | 14.0 | 0.00 | 0.00 | 0.00 | 76 | 1007.8 |
| 20260905023236 | 85 | 251 | 2.0 | 13.0 | 0.00 | 0.00 | 0.00 | 76 | 1007.7 |
| 20260905023025 | 85 | 216 | 9.0 | 13.0 | 0.00 | 0.00 | 0.00 | 76 | 1007.7 |
| 20260905022726 | 85 | 234 | 3.0 | 13.0 | 0.00 | 0.00 | 0.00 | 75 | 1007.8 |
| 20260905022525 | 85 | 176 | 5.0 | 13.0 | 0.00 | 0.00 | 0.00 | 75 | 1007.7 |
| 20260905022217 | 85 | 192 | 4.0 | 16.0 | 0.00 | 0.00 | 0.00 | 75 | 1007.7 |
| 20260905022024 | 86 | 207 | 10.0 | 16.0 | 0.00 | 0.00 | 0.00 | 74 | 1007.7 |
| 20260905021525 | 85 | 235 | 6.0 | 12.0 | 0.00 | 0.00 | 0.00 | 76 | 1007.7 |
| 20260905021157 | 85 | 268 | 6.0 | 12.0 | 0.00 | 0.00 | 0.00 | 77 | 1007.6 |
| 20260905021025 | 85 | 173 | 4.0 | 11.0 | 0.00 | 0.00 | 0.00 | 77 | 1007.6 |
| 20260905020646 | 85 | 248 | 7.0 | 11.0 | 0.00 | 0.00 | 0.00 | 76 | 1007.7 |
| 20260905020525 | 85 | 106 | 5.0 | 10.0 | 0.00 | 0.00 | 0.00 | 76 | 1007.6 |
| 20260905020136 | 85 | 233 | 6.0 | 16.0 | 0.00 | 0.00 | 0.00 | 76 | 1007.6 |
| 20260905020025 | 85 | 249 | 8.0 | 16.0 | 0.00 | 0.00 | 0.00 | 76 | 1007.6 |
| 20260905015627 | 85 | 155 | 3.0 | 10.0 | 0.00 | 0.00 | 0.00 | 76 | 1007.7 |
| 20260905015524 | 85 | 201 | 5.0 | 10.0 | 0.00 | 0.00 | 0.00 | 76 | 1007.7 |
| 20260905015116 | 84 | 180 | 5.0 | 13.0 | 0.00 | 0.00 | 0.00 | 76 | 1007.7 |
| 20260905015025 | 84 | 184 | 5.0 | 13.0 | 0.00 | 0.00 | 0.00 | 76 | 1007.7 |
| 20260905014606 | 84 | 226 | 7.0 | 13.0 | 0.00 | 0.00 | 0.00 | 76 | 1007.7 |
| 20260905014525 | 84 | 258 | 6.0 | 13.0 | 0.00 | 0.00 | 0.00 | 76 | 1007.7 |
| 20260905014056 | 84 | 208 | 6.0 | 14.0 | 0.00 | 0.00 | 0.00 | 76 | 1007.8 |
| 20260905014024 | 84 | 168 | 5.0 | 14.0 | 0.00 | 0.00 | 0.00 | 76 | 1007.8 |
| 20260905013546 | 84 | 212 | 5.0 | 11.0 | 0.00 | 0.00 | 0.00 | 76 | 1007.8 |
| 20260905013525 | 84 | 279 | 6.0 | 11.0 | 0.00 | 0.00 | 0.00 | 76 | 1007.8 |
| 20260905013035 | 84 | 141 | 5.0 | 12.0 | 0.00 | 0.00 | 0.00 | 75 | 1007.8 |
| 20260905013025 | 84 | 98 | 4.0 | 12.0 | 0.00 | 0.00 | 0.00 | 75 | 1007.8 |
| 20260905012527 | 84 | 180 | 3.0 | 13.0 | 0.00 | 0.00 | 0.00 | 74 | 1007.7 |
| 20260905012025 | 85 | 216 | 3.0 | 9.0 | 0.00 | 0.00 | 0.00 | 72 | 1007.7 |
| 20260905012016 | 85 | 222 | 3.0 | 9.0 | 0.00 | 0.00 | 0.00 | 72 | 1007.8 |
| 20260905011524 | 86 | 54 | 4.0 | 9.0 | 0.00 | 0.00 | 0.00 | 71 | 1007.7 |
| 20260905011506 | 86 | 36 | 4.0 | 12.0 | 0.00 | 0.00 | 0.00 | 71 | 1007.7 |
| 20260905011025 | 87 | 216 | 6.0 | 12.0 | 0.00 | 0.00 | 0.00 | 69 | 1007.6 |
| 20260905010956 | 87 | 202 | 6.0 | 12.0 | 0.00 | 0.00 | 0.00 | 69 | 1007.7 |
| 20260905010524 | 88 | 307 | 4.0 | 14.0 | 0.00 | 0.00 | 0.00 | 69 | 1007.6 |
| 20260905010446 | 88 | 20 | 7.0 | 14.0 | 0.00 | 0.00 | 0.00 | 68 | 1007.7 |
| 20260905010025 | 89 | 25 | 5.0 | 11.0 | 0.00 | 0.00 | 0.00 | 69 | 1007.6 |
| 20260905005936 | 89 | 162 | 3.0 | 11.0 | 0.00 | 0.00 | 0.00 | 69 | 1007.6 |
| 20260905005525 | 87 | 35 | 1.0 | 9.0 | 0.00 | 0.00 | 0.00 | 71 | 1007.5 |
| 20260905005426 | 87 | 29 | 2.0 | 9.0 | 0.00 | 0.00 | 0.00 | 71 | 1007.5 |
| 20260905005025 | 86 | 252 | 4.0 | 10.0 | 0.00 | 0.00 | 0.00 | 71 | 1007.5 |
| 20260905004916 | 86 | 210 | 7.0 | 10.0 | 0.00 | 0.00 | 0.00 | 71 | 1007.5 |
| 20260905004524 | 86 | 236 | 4.0 | 11.0 | 0.00 | 0.00 | 0.00 | 71 | 1007.4 |
| 20260905004406 | 87 | 197 | 7.0 | 11.0 | 0.00 | 0.00 | 0.00 | 70 | 1007.4 |
| 20260905004024 | 88 | 175 | 1.0 | 11.0 | 0.00 | 0.00 | 0.00 | 70 | 1007.4 |
| 20260905003856 | 88 | 25 | 5.0 | 11.0 | 0.00 | 0.00 | 0.00 | 69 | 1007.4 |
| 20260905003524 | 89 | 9 | 2.0 | 8.0 | 0.00 | 0.00 | 0.00 | 70 | 1007.3 |
| 20260905003346 | 89 | 251 | 4.0 | 8.0 | 0.00 | 0.00 | 0.00 | 70 | 1007.3 |
| 20260905003024 | 88 | 253 | 1.0 | 4.0 | 0.00 | 0.00 | 0.00 | 70 | 1007.3 |
| 20260905002835 | 88 | 28 | 2.0 | 4.0 | 0.00 | 0.00 | 0.00 | 71 | 1007.3 |
| 20260905002524 | 87 | 24 | 2.0 | 4.0 | 0.00 | 0.00 | 0.00 | 71 | 1007.3 |
| 20260905002325 | 87 | 108 | 1.0 | 4.0 | 0.00 | 0.00 | 0.00 | 72 | 1007.3 |
| 20260905002024 | 86 | 71 | 2.0 | 6.0 | 0.00 | 0.00 | 0.00 | 72 | 1007.3 |
| 20260905001815 | 86 | 87 | 3.0 | 6.0 | 0.00 | 0.00 | 0.00 | 72 | 1007.2 |
| 20260905001524 | 86 | 53 | 3.0 | 6.0 | 0.00 | 0.00 | 0.00 | 72 | 1007.2 |
| 20260905001306 | 86 | 33 | 1.0 | 6.0 | 0.00 | 0.00 | 0.00 | 72 | 1007.2 |
| 20260905001024 | 86 | 20 | 4.0 | 9.0 | 0.00 | 0.00 | 0.00 | 72 | 1007.2 |
| 20260905000756 | 85 | 69 | 5.0 | 9.0 | 0.00 | 0.00 | 0.00 | 73 | 1007.3 |
| 20260905000524 | 85 | 19 | 5.0 | 9.0 | 0.00 | 0.00 | 0.00 | 73 | 1007.2 |
| 20260905000245 | 85 | 58 | 5.0 | 9.0 | 0.00 | 0.00 | 0.00 | 73 | 1007.2 |
| 20260905000024 | 85 | 26 | 5.0 | 7.0 | 0.00 | 0.00 | 0.00 | 75 | 1007.2 |
| 20260904235735 | 84 | 28 | 1.0 | 4.0 | 0.00 | 0.00 | 0.00 | 77 | 1007.1 |
| 20260904235524 | 83 | 208 | 1.0 | 6.0 | 0.00 | 0.00 | 0.00 | 77 | 1007.1 |
| 20260904235225 | 82 | 28 | 2.0 | 6.0 | 0.00 | 0.00 | 0.00 | 78 | 1007.1 |
| 20260904235024 | 82 | 24 | 1.0 | 4.0 | 0.00 | 0.00 | 0.00 | 79 | 1007.1 |
| 20260904234715 | 82 | 183 | 2.0 | 4.0 | 0.00 | 0.00 | 0.00 | 79 | 1007.0 |
| 20260904234524 | 82 | 199 | 2.0 | 4.0 | 0.00 | 0.00 | 0.00 | 80 | 1007.0 |
| 20260904234205 | 82 | 209 | 2.0 | 5.0 | 0.00 | 0.00 | 0.00 | 80 | 1007.0 |
| 20260904234023 | 82 | 191 | 3.0 | 5.0 | 0.00 | 0.00 | 0.00 | 80 | 1007.0 |
| 20260904233655 | 82 | 209 | 2.0 | 5.0 | 0.00 | 0.00 | 0.00 | 81 | 1006.9 |
| 20260904233524 | 81 | 197 | 3.0 | 5.0 | 0.00 | 0.00 | 0.00 | 81 | 1006.9 |
| 20260904233145 | 81 | 169 | 3.0 | 5.0 | 0.00 | 0.00 | 0.00 | 81 | 1006.8 |
| 20260904233023 | 81 | 166 | 3.0 | 5.0 | 0.00 | 0.00 | 0.00 | 82 | 1006.8 |
| 20260904232635 | 81 | 220 | 3.0 | 4.0 | 0.00 | 0.00 | 0.00 | 82 | 1006.8 |
| 20260904232523 | 81 | 258 | 2.0 | 4.0 | 0.00 | 0.00 | 0.00 | 82 | 1006.8 |
| 20260904232125 | 81 | 213 | 2.0 | 6.0 | 0.00 | 0.00 | 0.00 | 82 | 1006.7 |
| 20260904232024 | 81 | 212 | 2.0 | 6.0 | 0.00 | 0.00 | 0.00 | 82 | 1006.7 |
| 20260904231615 | 81 | 163 | 2.0 | 6.0 | 0.00 | 0.00 | 0.00 | 81 | 1006.6 |
| 20260904231523 | 81 | 233 | 2.0 | 6.0 | 0.00 | 0.00 | 0.00 | 81 | 1006.6 |
| 20260904231024 | 81 | 192 | 3.0 | 5.0 | 0.00 | 0.00 | 0.00 | 81 | 1006.6 |
| 20260904230555 | 81 | 196 | 2.0 | 6.0 | 0.00 | 0.00 | 0.00 | 81 | 1006.6 |
| 20260904230523 | 81 | 201 | 2.0 | 6.0 | 0.00 | 0.00 | 0.00 | 81 | 1006.5 |
| 20260904230045 | 81 | 203 | 3.0 | 5.0 | 0.00 | 0.00 | 0.00 | 81 | 1006.5 |
| 20260904230023 | 81 | 213 | 3.0 | 5.0 | 0.00 | 0.00 | 0.00 | 81 | 1006.5 |
| 20260904225535 | 81 | 200 | 2.0 | 4.0 | 0.00 | 0.00 | 0.00 | 81 | 1006.5 |
| 20260904225524 | 81 | 219 | 2.0 | 4.0 | 0.00 | 0.00 | 0.00 | 81 | 1006.6 |
| 20260904225025 | 81 | 165 | 2.0 | 4.0 | 0.00 | 0.00 | 0.00 | 81 | 1006.6 |
| 20260904225023 | 81 | 171 | 2.0 | 4.0 | 0.00 | 0.00 | 0.00 | 81 | 1006.6 |
| 20260904224523 | 81 | 169 | 3.0 | 4.0 | 0.00 | 0.00 | 0.00 | 81 | 1006.6 |
| 20260904224515 | 81 | 180 | 3.0 | 4.0 | 0.00 | 0.00 | 0.00 | 81 | 1006.6 |
| 20260904224023 | 81 | 187 | 2.0 | 4.0 | 0.00 | 0.00 | 0.00 | 81 | 1006.5 |
| 20260904224004 | 81 | 199 | 2.0 | 3.0 | 0.00 | 0.00 | 0.00 | 81 | 1006.5 |
| 20260904223524 | 81 | 224 | 1.0 | 3.0 | 0.00 | 0.00 | 0.00 | 80 | 1006.4 |
| 20260904223455 | 81 | 170 | 1.0 | 3.0 | 0.00 | 0.00 | 0.00 | 80 | 1006.3 |
| 20260904223024 | 81 | 217 | 2.0 | 2.0 | 0.00 | 0.00 | 0.00 | 80 | 1006.3 |
| 20260904222523 | 81 | 251 | 1.0 | 2.0 | 0.00 | 0.00 | 0.00 | 80 | 1006.3 |
| 20260904222435 | 81 | 230 | 1.0 | 2.0 | 0.00 | 0.00 | 0.00 | 80 | 1006.2 |
| 20260904222023 | 81 | 253 | 1.0 | 3.0 | 0.00 | 0.00 | 0.00 | 81 | 1006.2 |
| 20260904221924 | 81 | 231 | 1.0 | 3.0 | 0.00 | 0.00 | 0.00 | 80 | 1006.1 |
| 20260904221523 | 81 | 219 | 1.0 | 2.0 | 0.00 | 0.00 | 0.00 | 81 | 1006.1 |
| 20260904221414 | 81 | 205 | 1.0 | 2.0 | 0.00 | 0.00 | 0.00 | 81 | 1006.2 |
| 20260904221023 | 81 | 216 | 1.0 | 2.0 | 0.00 | 0.00 | 0.00 | 81 | 1006.2 |
| 20260904220905 | 81 | 225 | 1.0 | 2.0 | 0.00 | 0.00 | 0.00 | 81 | 1006.1 |
| 20260904220523 | 81 | 200 | 1.0 | 2.0 | 0.00 | 0.00 | 0.00 | 81 | 1006.1 |
| 20260904220354 | 81 | 222 | 1.0 | 2.0 | 0.00 | 0.00 | 0.00 | 81 | 1006.1 |
| 20260904220023 | 81 | 211 | 2.0 | 2.0 | 0.00 | 0.00 | 0.00 | 81 | 1006.1 |
| 20260904215844 | 81 | 208 | 1.0 | 1.0 | 0.00 | 0.00 | 0.00 | 81 | 1006.1 |
| 20260904215523 | 81 | 196 | 1.0 | 2.0 | 0.00 | 0.00 | 0.00 | 81 | 1006.1 |
| 20260904215334 | 81 | 196 | 1.0 | 3.0 | 0.00 | 0.00 | 0.00 | 81 | 1006.1 |
| 20260904215023 | 81 | 190 | 1.0 | 3.0 | 0.00 | 0.00 | 0.00 | 81 | 1006.0 |
| 20260904214824 | 81 | 236 | 1.0 | 3.0 | 0.00 | 0.00 | 0.00 | 81 | 1006.0 |
| 20260904214523 | 81 | 238 | 1.0 | 4.0 | 0.00 | 0.00 | 0.00 | 81 | 1006.0 |
| 20260904214315 | 81 | 219 | 2.0 | 4.0 | 0.00 | 0.00 | 0.00 | 81 | 1006.0 |
| 20260904214023 | 81 | 191 | 2.0 | 4.0 | 0.00 | 0.00 | 0.00 | 81 | 1006.1 |
| 20260904213804 | 81 | 216 | 1.0 | 3.0 | 0.00 | 0.00 | 0.00 | 81 | 1006.0 |
| 20260904213523 | 81 | 231 | 1.0 | 2.0 | 0.00 | 0.00 | 0.00 | 81 | 1006.0 |
| 20260904213254 | 81 | 222 | 1.0 | 2.0 | 0.00 | 0.00 | 0.00 | 81 | 1006.0 |
| 20260904213022 | 81 | 222 | 1.0 | 3.0 | 0.00 | 0.00 | 0.00 | 81 | 1006.0 |
| 20260904212744 | 81 | 217 | 1.0 | 3.0 | 0.00 | 0.00 | 0.00 | 81 | 1006.0 |
| 20260904212523 | 81 | 221 | 1.0 | 2.0 | 0.00 | 0.00 | 0.00 | 81 | 1006.0 |
| 20260904212234 | 81 | 215 | 1.0 | 2.0 | 0.00 | 0.00 | 0.00 | 81 | 1006.0 |
| 20260904211724 | 81 | 218 | 2.0 | 3.0 | 0.00 | 0.00 | 0.00 | 80 | 1006.0 |
| 20260904211523 | 81 | 232 | 1.0 | 3.0 | 0.00 | 0.00 | 0.00 | 80 | 1006.0 |
| 20260904211214 | 81 | 203 | 1.0 | 2.0 | 0.00 | 0.00 | 0.00 | 80 | 1006.0 |
| 20260904211022 | 81 | 208 | 1.0 | 2.0 | 0.00 | 0.00 | 0.00 | 80 | 1006.0 |
| 20260904210704 | 81 | 210 | 1.0 | 2.0 | 0.00 | 0.00 | 0.00 | 80 | 1005.9 |
| 20260904210523 | 81 | 249 | 1.0 | 2.0 | 0.00 | 0.00 | 0.00 | 80 | 1005.9 |
| 20260904210153 | 81 | 212 | 1.0 | 3.0 | 0.00 | 0.00 | 0.00 | 80 | 1006.0 |
| 20260904210022 | 81 | 220 | 1.0 | 3.0 | 0.00 | 0.00 | 0.00 | 80 | 1006.0 |
| 20260904205644 | 81 | 196 | 2.0 | 3.0 | 0.00 | 0.00 | 0.00 | 80 | 1006.0 |
| 20260904205523 | 81 | 235 | 1.0 | 3.0 | 0.00 | 0.00 | 0.00 | 80 | 1006.0 |
| 20260904205134 | 81 | 184 | 1.0 | 3.0 | 0.00 | 0.00 | 0.00 | 81 | 1006.0 |
| 20260904205022 | 81 | 192 | 1.0 | 2.0 | 0.00 | 0.00 | 0.00 | 81 | 1006.1 |
| 20260904204624 | 81 | 180 | 1.0 | 3.0 | 0.00 | 0.00 | 0.00 | 80 | 1006.0 |
| 20260904204522 | 81 | 198 | 1.0 | 3.0 | 0.00 | 0.00 | 0.00 | 80 | 1006.0 |
| 20260904204114 | 81 | 206 | 2.0 | 4.0 | 0.00 | 0.00 | 0.00 | 80 | 1006.0 |
| 20260904204022 | 81 | 168 | 3.0 | 4.0 | 0.00 | 0.00 | 0.00 | 80 | 1006.0 |
| 20260904203604 | 81 | 196 | 3.0 | 4.0 | 0.00 | 0.00 | 0.00 | 79 | 1006.0 |
| 20260904203522 | 81 | 220 | 2.0 | 4.0 | 0.00 | 0.00 | 0.00 | 79 | 1006.0 |
| 20260904203054 | 81 | 242 | 1.0 | 2.0 | 0.00 | 0.00 | 0.00 | 78 | 1006.0 |
| 20260904203023 | 81 | 272 | 1.0 | 2.0 | 0.00 | 0.00 | 0.00 | 78 | 1005.9 |
| 20260904202543 | 81 | 208 | 1.0 | 2.0 | 0.00 | 0.00 | 0.00 | 78 | 1005.9 |
| 20260904202522 | 81 | 242 | 1.0 | 2.0 | 0.00 | 0.00 | 0.00 | 78 | 1005.9 |
| 20260904202034 | 81 | 203 | 1.0 | 2.0 | 0.00 | 0.00 | 0.00 | 78 | 1005.9 |
| 20260904202023 | 81 | 200 | 1.0 | 2.0 | 0.00 | 0.00 | 0.00 | 78 | 1005.9 |
| 20260904201522 | 81 | 208 | 1.0 | 2.0 | 0.00 | 0.00 | 0.00 | 78 | 1005.9 |
| 20260904201022 | 81 | 271 | 0.0 | 1.0 | 0.00 | 0.00 | 0.00 | 78 | 1005.9 |
| 20260904201014 | 81 | 255 | 0.0 | 1.0 | 0.00 | 0.00 | 0.00 | 78 | 1005.9 |
| 20260904200522 | 81 | 259 | 0.0 | 1.0 | 0.00 | 0.00 | 0.00 | 78 | 1005.9 |
| 20260904200022 | 81 | 259 | 1.0 | 3.0 | 0.00 | 0.00 | 0.00 | 78 | 1005.9 |
| 20260904195954 | 81 | 281 | 1.0 | 3.0 | 0.00 | 0.00 | 0.00 | 78 | 1005.9 |
| 20260904195522 | 81 | 182 | 1.0 | 4.0 | 0.00 | 0.00 | 0.00 | 78 | 1005.9 |
| 20260904195022 | 81 | 226 | 2.0 | 4.0 | 0.00 | 0.00 | 0.00 | 77 | 1005.8 |
| 20260904194933 | 81 | 162 | 3.0 | 4.0 | 0.00 | 0.00 | 0.00 | 77 | 1005.8 |
| 20260904194522 | 81 | 234 | 2.0 | 3.0 | 0.00 | 0.00 | 0.00 | 77 | 1005.8 |
| 20260904194424 | 81 | 242 | 2.0 | 3.0 | 0.00 | 0.00 | 0.00 | 77 | 1005.9 |
| 20260904194022 | 81 | 207 | 2.0 | 6.0 | 0.00 | 0.00 | 0.00 | 77 | 1005.8 |
| 20260904193913 | 81 | 202 | 3.0 | 6.0 | 0.00 | 0.00 | 0.00 | 77 | 1005.8 |
| 20260904193522 | 81 | 207 | 2.0 | 8.0 | 0.00 | 0.00 | 0.00 | 77 | 1005.8 |
| 20260904193404 | 81 | 236 | 4.0 | 8.0 | 0.00 | 0.00 | 0.00 | 77 | 1005.8 |
| 20260904193021 | 81 | 180 | 4.0 | 7.0 | 0.00 | 0.00 | 0.00 | 77 | 1005.8 |
| 20260904192853 | 81 | 216 | 4.0 | 7.0 | 0.00 | 0.00 | 0.00 | 77 | 1005.8 |
| 20260904192522 | 81 | 204 | 4.0 | 8.0 | 0.00 | 0.00 | 0.00 | 77 | 1005.7 |
| 20260904192343 | 81 | 193 | 4.0 | 8.0 | 0.00 | 0.00 | 0.00 | 77 | 1005.8 |
| 20260904192022 | 81 | 195 | 3.0 | 6.0 | 0.00 | 0.00 | 0.00 | 77 | 1005.8 |
| 20260904191832 | 81 | 175 | 4.0 | 7.0 | 0.00 | 0.00 | 0.00 | 77 | 1005.7 |
| 20260904191521 | 81 | 219 | 5.0 | 7.0 | 0.00 | 0.00 | 0.00 | 77 | 1005.7 |
| 20260904191323 | 81 | 184 | 3.0 | 5.0 | 0.00 | 0.00 | 0.00 | 78 | 1005.7 |
| 20260904191022 | 81 | 215 | 3.0 | 6.0 | 0.00 | 0.00 | 0.00 | 78 | 1005.7 |
| 20260904190813 | 81 | 272 | 3.0 | 6.0 | 0.00 | 0.00 | 0.00 | 78 | 1005.7 |
| 20260904190522 | 82 | 216 | 2.0 | 5.0 | 0.00 | 0.00 | 0.00 | 78 | 1005.7 |
| 20260904190303 | 82 | 200 | 4.0 | 6.0 | 0.00 | 0.00 | 0.00 | 77 | 1005.7 |
| 20260904190021 | 81 | 191 | 2.0 | 6.0 | 0.00 | 0.00 | 0.00 | 77 | 1005.7 |
| 20260904185753 | 81 | 206 | 4.0 | 7.0 | 0.00 | 0.00 | 0.00 | 77 | 1005.7 |
| 20260904185522 | 81 | 191 | 5.0 | 7.0 | 0.00 | 0.00 | 0.00 | 77 | 1005.6 |
| 20260904185243 | 81 | 161 | 2.0 | 4.0 | 0.00 | 0.00 | 0.00 | 77 | 1005.7 |
| 20260904185021 | 81 | 173 | 1.0 | 4.0 | 0.00 | 0.00 | 0.00 | 78 | 1005.6 |
| 20260904184733 | 81 | 196 | 3.0 | 7.0 | 0.00 | 0.00 | 0.00 | 78 | 1005.5 |
| 20260904184521 | 81 | 195 | 5.0 | 7.0 | 0.00 | 0.00 | 0.00 | 78 | 1005.5 |
| 20260904184223 | 81 | 199 | 4.0 | 7.0 | 0.00 | 0.00 | 0.00 | 79 | 1005.6 |
| 20260904184022 | 81 | 219 | 2.0 | 5.0 | 0.00 | 0.00 | 0.00 | 80 | 1005.5 |
| 20260904183713 | 81 | 269 | 3.0 | 5.0 | 0.00 | 0.00 | 0.00 | 80 | 1005.5 |
| 20260904183521 | 81 | 209 | 3.0 | 5.0 | 0.00 | 0.00 | 0.00 | 80 | 1005.5 |
| 20260904183203 | 81 | 213 | 3.0 | 5.0 | 0.00 | 0.00 | 0.00 | 80 | 1005.6 |
| 20260904183022 | 82 | 216 | 0.0 | 5.0 | 0.00 | 0.00 | 0.00 | 80 | 1005.5 |
| 20260904182652 | 82 | 228 | 2.0 | 5.0 | 0.00 | 0.00 | 0.00 | 80 | 1005.6 |
| 20260904182521 | 82 | 211 | 3.0 | 5.0 | 0.00 | 0.00 | 0.00 | 80 | 1005.6 |
| 20260904182143 | 82 | 246 | 4.0 | 5.0 | 0.00 | 0.00 | 0.00 | 79 | 1005.6 |
| 20260904182021 | 82 | 243 | 3.0 | 5.0 | 0.00 | 0.00 | 0.00 | 79 | 1005.5 |
| 20260904181632 | 82 | 219 | 3.0 | 4.0 | 0.00 | 0.00 | 0.00 | 79 | 1005.5 |
| 20260904181521 | 82 | 280 | 1.0 | 3.0 | 0.00 | 0.00 | 0.00 | 79 | 1005.6 |
| 20260904181123 | 82 | 268 | 1.0 | 3.0 | 0.00 | 0.00 | 0.00 | 79 | 1005.6 |
| 20260904181021 | 82 | 220 | 2.0 | 3.0 | 0.00 | 0.00 | 0.00 | 79 | 1005.6 |
| 20260904180612 | 82 | 187 | 2.0 | 3.0 | 0.00 | 0.00 | 0.00 | 78 | 1005.6 |
| 20260904180521 | 82 | 200 | 1.0 | 3.0 | 0.00 | 0.00 | 0.00 | 78 | 1005.6 |
| 20260904180021 | 82 | 208 | 1.0 | 3.0 | 0.00 | 0.00 | 0.00 | 78 | 1005.5 |
| 20260904175552 | 82 | 140 | 1.0 | 4.0 | 0.00 | 0.00 | 0.00 | 77 | 1005.6 |
| 20260904175521 | 82 | 172 | 1.0 | 4.0 | 0.00 | 0.00 | 0.00 | 77 | 1005.6 |
| 20260904175042 | 82 | 203 | 1.0 | 3.0 | 0.00 | 0.00 | 0.00 | 77 | 1005.7 |
| 20260904175021 | 82 | 162 | 1.0 | 3.0 | 0.00 | 0.00 | 0.00 | 77 | 1005.6 |
| 20260904174533 | 82 | 185 | 2.0 | 4.0 | 0.00 | 0.00 | 0.00 | 77 | 1005.7 |
| 20260904174520 | 82 | 194 | 2.0 | 4.0 | 0.00 | 0.00 | 0.00 | 77 | 1005.7 |
| 20260904174023 | 82 | 37 | 1.0 | 2.0 | 0.00 | 0.00 | 0.00 | 77 | 1005.7 |
| 20260904174021 | 82 | 40 | 1.0 | 2.0 | 0.00 | 0.00 | 0.00 | 77 | 1005.7 |
| 20260904173521 | 82 | 140 | 1.0 | 1.0 | 0.00 | 0.00 | 0.00 | 77 | 1005.8 |
| 20260904173513 | 82 | 65 | 1.0 | 1.0 | 0.00 | 0.00 | 0.00 | 77 | 1005.8 |
| 20260904173021 | 82 | 46 | 1.0 | 3.0 | 0.00 | 0.00 | 0.00 | 77 | 1005.8 |
| 20260904173002 | 82 | 45 | 1.0 | 3.0 | 0.00 | 0.00 | 0.00 | 77 | 1005.8 |
| 20260904172521 | 82 | 67 | 1.0 | 5.0 | 0.00 | 0.00 | 0.00 | 77 | 1005.9 |
| 20260904172452 | 82 | 12 | 1.0 | 5.0 | 0.00 | 0.00 | 0.00 | 77 | 1005.9 |
| 20260904172020 | 82 | 235 | 2.0 | 5.0 | 0.00 | 0.00 | 0.00 | 77 | 1005.8 |
| 20260904171942 | 82 | 201 | 2.0 | 5.0 | 0.00 | 0.00 | 0.00 | 77 | 1005.9 |
| 20260904171521 | 82 | 160 | 1.0 | 2.0 | 0.00 | 0.00 | 0.00 | 77 | 1005.9 |
| 20260904171432 | 82 | 180 | 1.0 | 2.0 | 0.00 | 0.00 | 0.00 | 77 | 1005.9 |
| 20260904171020 | 82 | 225 | 1.0 | 3.0 | 0.00 | 0.00 | 0.00 | 76 | 1005.9 |
| 20260904170922 | 82 | 225 | 1.0 | 3.0 | 0.00 | 0.00 | 0.00 | 76 | 1006.0 |
| 20260904170521 | 82 | 269 | 1.0 | 3.0 | 0.00 | 0.00 | 0.00 | 76 | 1006.1 |
| 20260904170412 | 82 | 283 | 1.0 | 3.0 | 0.00 | 0.00 | 0.00 | 76 | 1006.1 |
| 20260904170021 | 82 | 225 | 2.0 | 3.0 | 0.00 | 0.00 | 0.00 | 76 | 1006.1 |
| 20260904165520 | 82 | 60 | 1.0 | 3.0 | 0.00 | 0.00 | 0.00 | 76 | 1006.1 |
| 20260904165352 | 82 | 103 | 1.0 | 3.0 | 0.00 | 0.00 | 0.00 | 76 | 1006.1 |
| 20260904165021 | 82 | 96 | 1.0 | 2.0 | 0.00 | 0.00 | 0.00 | 76 | 1006.1 |
| 20260904164841 | 82 | 357 | 0.0 | 1.0 | 0.00 | 0.00 | 0.00 | 76 | 1006.1 |
| 20260904164520 | 82 | 73 | 0.0 | 2.0 | 0.00 | 0.00 | 0.00 | 76 | 1006.1 |
| 20260904164332 | 82 | 149 | 1.0 | 2.0 | 0.00 | 0.00 | 0.00 | 76 | 1006.1 |
| 20260904164021 | 82 | 261 | 0.0 | 1.0 | 0.00 | 0.00 | 0.00 | 76 | 1006.1 |
| 20260904163821 | 82 | 38 | 0.0 | 0.0 | 0.00 | 0.00 | 0.00 | 76 | 1006.1 |
| 20260904163520 | 82 | 38 | 0.0 | 1.0 | 0.00 | 0.00 | 0.00 | 76 | 1006.1 |
| 20260904163312 | 82 | 34 | 0.0 | 1.0 | 0.00 | 0.00 | 0.00 | 76 | 1006.1 |
| 20260904163020 | 82 | 35 | 1.0 | 3.0 | 0.00 | 0.00 | 0.00 | 76 | 1006.1 |
| 20260904162802 | 82 | 39 | 1.0 | 4.0 | 0.00 | 0.00 | 0.00 | 76 | 1006.2 |
| 20260904162520 | 82 | 50 | 1.0 | 4.0 | 0.00 | 0.00 | 0.00 | 76 | 1006.2 |
| 20260904162252 | 82 | 294 | 1.0 | 1.0 | 0.00 | 0.00 | 0.00 | 76 | 1006.2 |
| 20260904162020 | 82 | 360 | 0.0 | 1.0 | 0.00 | 0.00 | 0.00 | 76 | 1006.2 |
| 20260904161521 | 82 | 317 | 0.0 | 0.0 | 0.00 | 0.00 | 0.00 | 76 | 1006.2 |
| 20260904161231 | 82 | 224 | 0.0 | 1.0 | 0.00 | 0.00 | 0.00 | 76 | 1006.2 |
| 20260904161020 | 82 | 54 | 0.0 | 2.0 | 0.00 | 0.00 | 0.00 | 77 | 1006.3 |
| 20260904160722 | 82 | 215 | 1.0 | 2.0 | 0.00 | 0.00 | 0.00 | 77 | 1006.2 |
| 20260904160520 | 82 | 215 | 1.0 | 3.0 | 0.00 | 0.00 | 0.00 | 77 | 1006.2 |
| 20260904160212 | 82 | 219 | 2.0 | 3.0 | 0.00 | 0.00 | 0.00 | 77 | 1006.2 |
| 20260904160020 | 82 | 195 | 1.0 | 3.0 | 0.00 | 0.00 | 0.00 | 77 | 1006.2 |
| 20260904155701 | 82 | 290 | 0.0 | 1.0 | 0.00 | 0.00 | 0.00 | 77 | 1006.2 |
| 20260904155520 | 82 | 302 | 0.0 | 1.0 | 0.00 | 0.00 | 0.00 | 77 | 1006.2 |
| 20260904155152 | 82 | 263 | 0.0 | 2.0 | 0.00 | 0.00 | 0.00 | 77 | 1006.2 |
| 20260904155020 | 82 | 291 | 0.0 | 2.0 | 0.00 | 0.00 | 0.00 | 77 | 1006.1 |
| 20260904154641 | 82 | 290 | 0.0 | 1.0 | 0.00 | 0.00 | 0.00 | 77 | 1006.2 |
| 20260904154520 | 82 | 224 | 0.0 | 1.0 | 0.00 | 0.00 | 0.00 | 77 | 1006.2 |
| 20260904154131 | 82 | 222 | 0.0 | 4.0 | 0.00 | 0.00 | 0.00 | 77 | 1006.2 |
| 20260904154020 | 82 | 217 | 1.0 | 4.0 | 0.00 | 0.00 | 0.00 | 77 | 1006.2 |
| 20260904153622 | 82 | 236 | 2.0 | 3.0 | 0.00 | 0.00 | 0.00 | 77 | 1006.3 |
| 20260904153111 | 82 | 305 | 1.0 | 4.0 | 0.00 | 0.00 | 0.00 | 77 | 1006.3 |
| 20260904153020 | 82 | 257 | 1.0 | 4.0 | 0.00 | 0.00 | 0.00 | 77 | 1006.3 |
| 20260904152602 | 82 | 271 | 1.0 | 3.0 | 0.00 | 0.00 | 0.00 | 77 | 1006.4 |
| 20260904152520 | 82 | 269 | 1.0 | 3.0 | 0.00 | 0.00 | 0.00 | 77 | 1006.4 |
| 20260904152051 | 82 | 273 | 1.0 | 3.0 | 0.00 | 0.00 | 0.00 | 77 | 1006.3 |
| 20260904152020 | 82 | 243 | 1.0 | 4.0 | 0.00 | 0.00 | 0.00 | 77 | 1006.3 |
| 20260904151541 | 82 | 230 | 2.0 | 5.0 | 0.00 | 0.00 | 0.00 | 78 | 1006.3 |
| 20260904151520 | 82 | 211 | 2.0 | 5.0 | 0.00 | 0.00 | 0.00 | 77 | 1006.3 |
| 20260904151031 | 82 | 150 | 2.0 | 7.0 | 0.00 | 0.00 | 0.00 | 77 | 1006.3 |
| 20260904151020 | 82 | 176 | 2.0 | 7.0 | 0.00 | 0.00 | 0.00 | 77 | 1006.3 |
| 20260904150521 | 82 | 255 | 3.0 | 6.0 | 0.00 | 0.00 | 0.00 | 77 | 1006.4 |
| 20260904150020 | 82 | 228 | 2.0 | 4.0 | 0.00 | 0.00 | 0.00 | 77 | 1006.4 |
| 20260904150011 | 82 | 268 | 2.0 | 4.0 | 0.00 | 0.00 | 0.00 | 77 | 1006.4 |
| 20260904145520 | 82 | 240 | 3.0 | 5.0 | 0.00 | 0.00 | 0.00 | 77 | 1006.4 |
| 20260904145501 | 82 | 227 | 3.0 | 5.0 | 0.00 | 0.00 | 0.00 | 77 | 1006.5 |
| 20260904145020 | 82 | 202 | 3.0 | 8.0 | 0.00 | 0.00 | 0.00 | 77 | 1006.4 |
| 20260904144951 | 82 | 225 | 4.0 | 8.0 | 0.00 | 0.00 | 0.00 | 77 | 1006.4 |
| 20260904144520 | 82 | 183 | 5.0 | 11.0 | 0.00 | 0.00 | 0.00 | 77 | 1006.5 |
| 20260904144441 | 82 | 177 | 5.0 | 11.0 | 0.00 | 0.00 | 0.00 | 77 | 1006.5 |
| 20260904144019 | 82 | 152 | 5.0 | 10.0 | 0.00 | 0.00 | 0.00 | 77 | 1006.5 |
| 20260904143930 | 82 | 166 | 4.0 | 6.0 | 0.00 | 0.00 | 0.00 | 77 | 1006.5 |
| 20260904143519 | 83 | 145 | 4.0 | 6.0 | 0.00 | 0.00 | 0.00 | 77 | 1006.5 |
| 20260904143421 | 83 | 221 | 1.0 | 7.0 | 0.00 | 0.00 | 0.00 | 77 | 1006.5 |
| 20260904143020 | 83 | 139 | 4.0 | 7.0 | 0.00 | 0.00 | 0.00 | 76 | 1006.5 |
| 20260904142911 | 83 | 170 | 2.0 | 4.0 | 0.00 | 0.00 | 0.00 | 76 | 1006.5 |
| 20260904142519 | 83 | 223 | 3.0 | 6.0 | 0.00 | 0.00 | 0.00 | 76 | 1006.5 |
| 20260904142400 | 83 | 194 | 4.0 | 6.0 | 0.00 | 0.00 | 0.00 | 76 | 1006.5 |
| 20260904142020 | 83 | 204 | 2.0 | 4.0 | 0.00 | 0.00 | 0.00 | 75 | 1006.5 |
| 20260904141851 | 83 | 196 | 2.0 | 3.0 | 0.00 | 0.00 | 0.00 | 75 | 1006.5 |
| 20260904141520 | 83 | 206 | 3.0 | 4.0 | 0.00 | 0.00 | 0.00 | 75 | 1006.4 |
| 20260904141340 | 83 | 210 | 3.0 | 4.0 | 0.00 | 0.00 | 0.00 | 75 | 1006.4 |
| 20260904141019 | 83 | 188 | 2.0 | 4.0 | 0.00 | 0.00 | 0.00 | 75 | 1006.4 |
| 20260904140831 | 83 | 228 | 2.0 | 3.0 | 0.00 | 0.00 | 0.00 | 75 | 1006.4 |
| 20260904140519 | 83 | 233 | 2.0 | 4.0 | 0.00 | 0.00 | 0.00 | 75 | 1006.4 |
| 20260904140321 | 83 | 271 | 3.0 | 4.0 | 0.00 | 0.00 | 0.00 | 75 | 1006.4 |
| 20260904140020 | 83 | 277 | 2.0 | 3.0 | 0.00 | 0.00 | 0.00 | 75 | 1006.3 |
| 20260904135810 | 83 | 289 | 1.0 | 2.0 | 0.00 | 0.00 | 0.00 | 75 | 1006.3 |
| 20260904135519 | 83 | 225 | 1.0 | 4.0 | 0.00 | 0.00 | 0.00 | 75 | 1006.3 |
| 20260904135019 | 83 | 234 | 2.0 | 5.0 | 0.00 | 0.00 | 0.00 | 75 | 1006.3 |
| 20260904134751 | 83 | 269 | 1.0 | 2.0 | 0.00 | 0.00 | 0.00 | 75 | 1006.3 |
| 20260904134519 | 83 | 270 | 1.0 | 2.0 | 0.00 | 0.00 | 0.00 | 75 | 1006.3 |
| 20260904134240 | 83 | 262 | 1.0 | 2.0 | 0.00 | 0.00 | 0.00 | 75 | 1006.3 |
| 20260904134019 | 83 | 294 | 1.0 | 3.0 | 0.00 | 0.00 | 0.00 | 75 | 1006.3 |
| 20260904133730 | 83 | 263 | 1.0 | 3.0 | 0.00 | 0.00 | 0.00 | 75 | 1006.2 |
| 20260904133519 | 83 | 295 | 0.0 | 2.0 | 0.00 | 0.00 | 0.00 | 75 | 1006.3 |
| 20260904133221 | 83 | 218 | 0.0 | 3.0 | 0.00 | 0.00 | 0.00 | 75 | 1006.2 |
| 20260904133019 | 83 | 196 | 1.0 | 3.0 | 0.00 | 0.00 | 0.00 | 75 | 1006.3 |
| 20260904132710 | 83 | 187 | 2.0 | 4.0 | 0.00 | 0.00 | 0.00 | 75 | 1006.4 |
| 20260904132519 | 83 | 226 | 2.0 | 4.0 | 0.00 | 0.00 | 0.00 | 75 | 1006.3 |
| 20260904132200 | 83 | 243 | 1.0 | 4.0 | 0.00 | 0.00 | 0.00 | 75 | 1006.3 |
| 20260904132019 | 83 | 208 | 2.0 | 4.0 | 0.00 | 0.00 | 0.00 | 75 | 1006.2 |
| 20260904131650 | 83 | 200 | 0.0 | 5.0 | 0.00 | 0.00 | 0.00 | 75 | 1006.2 |
| 20260904131518 | 83 | 206 | 1.0 | 5.0 | 0.00 | 0.00 | 0.00 | 75 | 1006.2 |
| 20260904131140 | 82 | 256 | 2.0 | 6.0 | 0.00 | 0.00 | 0.00 | 76 | 1006.2 |
| 20260904131019 | 82 | 175 | 2.0 | 7.0 | 0.00 | 0.00 | 0.00 | 76 | 1006.2 |
| 20260904130630 | 83 | 209 | 3.0 | 7.0 | 0.00 | 0.00 | 0.00 | 76 | 1006.1 |
| 20260904130519 | 83 | 252 | 3.0 | 5.0 | 0.00 | 0.00 | 0.00 | 76 | 1006.1 |
| 20260904130120 | 83 | 210 | 2.0 | 5.0 | 0.00 | 0.00 | 0.00 | 76 | 1006.0 |
| 20260904130019 | 83 | 165 | 2.0 | 5.0 | 0.00 | 0.00 | 0.00 | 76 | 1006.0 |
| 20260904125610 | 83 | 79 | 2.0 | 6.0 | 0.00 | 0.00 | 0.00 | 76 | 1006.0 |
| 20260904125519 | 83 | 245 | 4.0 | 6.0 | 0.00 | 0.00 | 0.00 | 76 | 1006.0 |
| 20260904125100 | 83 | 201 | 3.0 | 5.0 | 0.00 | 0.00 | 0.00 | 76 | 1005.9 |
| 20260904125019 | 83 | 260 | 2.0 | 5.0 | 0.00 | 0.00 | 0.00 | 76 | 1006.0 |
| 20260904124550 | 83 | 293 | 0.0 | 5.0 | 0.00 | 0.00 | 0.00 | 76 | 1005.9 |
| 20260904124519 | 83 | 159 | 0.0 | 5.0 | 0.00 | 0.00 | 0.00 | 76 | 1005.9 |
| 20260904124040 | 83 | 360 | 1.0 | 3.0 | 0.00 | 0.00 | 0.00 | 76 | 1005.8 |
| 20260904124018 | 83 | 336 | 1.0 | 3.0 | 0.00 | 0.00 | 0.00 | 76 | 1005.8 |
| 20260904123530 | 83 | 263 | 2.0 | 4.0 | 0.00 | 0.00 | 0.00 | 76 | 1005.8 |
| 20260904123519 | 83 | 309 | 2.0 | 4.0 | 0.00 | 0.00 | 0.00 | 76 | 1005.8 |
| 20260904123020 | 83 | 86 | 2.0 | 5.0 | 0.00 | 0.00 | 0.00 | 76 | 1005.7 |
| 20260904123018 | 83 | 82 | 2.0 | 5.0 | 0.00 | 0.00 | 0.00 | 76 | 1005.7 |
| 20260904122518 | 83 | 290 | 2.0 | 5.0 | 0.00 | 0.00 | 0.00 | 76 | 1005.6 |
| 20260904122510 | 83 | 265 | 2.0 | 5.0 | 0.00 | 0.00 | 0.00 | 76 | 1005.6 |
| 20260904122019 | 83 | 274 | 2.0 | 6.0 | 0.00 | 0.00 | 0.00 | 76 | 1005.5 |
| 20260904122000 | 83 | 315 | 2.0 | 6.0 | 0.00 | 0.00 | 0.00 | 76 | 1005.5 |
| 20260904121519 | 83 | 28 | 1.0 | 7.0 | 0.00 | 0.00 | 0.00 | 75 | 1005.4 |
| 20260904121449 | 83 | 258 | 1.0 | 7.0 | 0.00 | 0.00 | 0.00 | 75 | 1005.4 |
| 20260904121018 | 83 | 322 | 1.0 | 4.0 | 0.00 | 0.00 | 0.00 | 76 | 1005.4 |
| 20260904120518 | 83 | 315 | 2.0 | 4.0 | 0.00 | 0.00 | 0.00 | 75 | 1005.4 |
| 20260904120430 | 83 | 64 | 1.0 | 4.0 | 0.00 | 0.00 | 0.00 | 75 | 1005.3 |
| 20260904120019 | 83 | 226 | 2.0 | 4.0 | 0.00 | 0.00 | 0.00 | 75 | 1005.3 |
| 20260904115920 | 83 | 256 | 2.0 | 4.0 | 0.00 | 0.00 | 0.00 | 75 | 1005.3 |
| 20260904115518 | 83 | 301 | 1.0 | 4.0 | 0.00 | 0.00 | 0.00 | 75 | 1005.3 |
| 20260904115409 | 83 | 344 | 0.0 | 4.0 | 0.00 | 0.00 | 0.00 | 75 | 1005.3 |
| 20260904115018 | 83 | 36 | 0.0 | 5.0 | 0.00 | 0.00 | 0.00 | 75 | 1005.3 |
| 20260904114900 | 83 | 17 | 1.0 | 5.0 | 0.00 | 0.00 | 0.00 | 75 | 1005.2 |
| 20260904114518 | 83 | 328 | 1.0 | 3.0 | 0.00 | 0.00 | 0.00 | 75 | 1005.2 |
| 20260904114350 | 83 | 286 | 0.0 | 5.0 | 0.00 | 0.00 | 0.00 | 75 | 1005.2 |
| 20260904114020 | 83 | 305 | 2.0 | 5.0 | 0.00 | 0.00 | 0.00 | 75 | 1005.2 |
| 20260904113839 | 83 | 267 | 3.0 | 4.0 | 0.00 | 0.00 | 0.00 | 75 | 1005.0 |
| 20260904113518 | 83 | 238 | 1.0 | 3.0 | 0.00 | 0.00 | 0.00 | 75 | 1005.0 |
| 20260904113329 | 83 | 324 | 1.0 | 3.0 | 0.00 | 0.00 | 0.00 | 75 | 1004.9 |
| 20260904113018 | 83 | 332 | 1.0 | 7.0 | 0.00 | 0.00 | 0.00 | 75 | 1005.0 |
| 20260904112820 | 83 | 294 | 1.0 | 7.0 | 0.00 | 0.00 | 0.00 | 75 | 1004.9 |
| 20260904112518 | 83 | 202 | 2.0 | 5.0 | 0.00 | 0.00 | 0.00 | 75 | 1004.9 |
| 20260904112309 | 83 | 301 | 1.0 | 5.0 | 0.00 | 0.00 | 0.00 | 75 | 1004.9 |
| 20260904112018 | 83 | 272 | 2.0 | 8.0 | 0.00 | 0.00 | 0.00 | 75 | 1004.9 |
| 20260904111759 | 83 | 292 | 5.0 | 8.0 | 0.00 | 0.00 | 0.00 | 75 | 1005.0 |
| 20260904111518 | 83 | 249 | 1.0 | 5.0 | 0.00 | 0.00 | 0.00 | 75 | 1004.9 |
| 20260904111250 | 83 | 344 | 1.0 | 3.0 | 0.00 | 0.00 | 0.00 | 75 | 1004.9 |
| 20260904111018 | 83 | 274 | 1.0 | 6.0 | 0.00 | 0.00 | 0.00 | 75 | 1004.9 |
| 20260904110739 | 83 | 294 | 3.0 | 6.0 | 0.00 | 0.00 | 0.00 | 75 | 1004.9 |
| 20260904110518 | 83 | 336 | 2.0 | 6.0 | 0.00 | 0.00 | 0.00 | 75 | 1004.8 |
| 20260904110229 | 84 | 7 | 2.0 | 7.0 | 0.00 | 0.00 | 0.00 | 75 | 1004.7 |
| 20260904105719 | 84 | 250 | 3.0 | 8.0 | 0.00 | 0.00 | 0.00 | 74 | 1004.7 |
| 20260904105517 | 84 | 301 | 1.0 | 4.0 | 0.00 | 0.00 | 0.00 | 74 | 1004.7 |
| 20260904105209 | 84 | 4 | 1.0 | 3.0 | 0.00 | 0.00 | 0.00 | 74 | 1004.6 |
| 20260904105018 | 84 | 264 | 1.0 | 4.0 | 0.00 | 0.00 | 0.00 | 74 | 1004.6 |
| 20260904104518 | 84 | 213 | 1.0 | 7.0 | 0.00 | 0.00 | 0.00 | 74 | 1004.7 |
| 20260904104149 | 84 | 277 | 2.0 | 6.0 | 0.00 | 0.00 | 0.00 | 74 | 1004.6 |
| 20260904104017 | 84 | 274 | 0.0 | 6.0 | 0.00 | 0.00 | 0.00 | 74 | 1004.6 |
| 20260904103639 | 84 | 260 | 2.0 | 10.0 | 0.00 | 0.00 | 0.00 | 74 | 1004.5 |
| 20260904103518 | 84 | 277 | 3.0 | 10.0 | 0.00 | 0.00 | 0.00 | 74 | 1004.5 |
| 20260904103129 | 84 | 116 | 1.0 | 3.0 | 0.00 | 0.00 | 0.00 | 74 | 1004.4 |
| 20260904103018 | 84 | 343 | 1.0 | 3.0 | 0.00 | 0.00 | 0.00 | 74 | 1004.4 |
| 20260904102619 | 84 | 351 | 1.0 | 4.0 | 0.00 | 0.00 | 0.00 | 74 | 1004.5 |
| 20260904102517 | 84 | 316 | 1.0 | 4.0 | 0.00 | 0.00 | 0.00 | 74 | 1004.5 |
| 20260904102018 | 84 | 321 | 1.0 | 3.0 | 0.00 | 0.00 | 0.00 | 74 | 1004.4 |
| 20260904101559 | 84 | 311 | 1.0 | 6.0 | 0.00 | 0.00 | 0.00 | 74 | 1004.4 |
| 20260904101518 | 84 | 312 | 1.0 | 6.0 | 0.00 | 0.00 | 0.00 | 73 | 1004.4 |
| 20260904101048 | 84 | 31 | 1.0 | 5.0 | 0.00 | 0.00 | 0.00 | 73 | 1004.3 |
| 20260904101017 | 84 | 50 | 1.0 | 5.0 | 0.00 | 0.00 | 0.00 | 73 | 1004.4 |
| 20260904100539 | 84 | 297 | 2.0 | 4.0 | 0.00 | 0.00 | 0.00 | 73 | 1004.3 |
| 20260904100517 | 84 | 22 | 1.0 | 4.0 | 0.00 | 0.00 | 0.00 | 73 | 1004.3 |
| 20260904100029 | 84 | 351 | 1.0 | 8.0 | 0.00 | 0.00 | 0.00 | 73 | 1004.3 |
| 20260904100018 | 84 | 284 | 0.0 | 8.0 | 0.00 | 0.00 | 0.00 | 73 | 1004.3 |
| 20260904095519 | 85 | 330 | 2.0 | 5.0 | 0.00 | 0.00 | 0.00 | 73 | 1004.3 |
| 20260904095517 | 85 | 319 | 2.0 | 5.0 | 0.00 | 0.00 | 0.00 | 73 | 1004.3 |
| 20260904095017 | 84 | 265 | 2.0 | 5.0 | 0.00 | 0.00 | 0.00 | 73 | 1004.2 |
| 20260904095009 | 84 | 280 | 2.0 | 5.0 | 0.00 | 0.00 | 0.00 | 73 | 1004.2 |
| 20260904094518 | 84 | 206 | 1.0 | 8.0 | 0.00 | 0.00 | 0.00 | 73 | 1004.1 |
| 20260904094459 | 84 | 337 | 1.0 | 10.0 | 0.00 | 0.00 | 0.00 | 73 | 1004.1 |
| 20260904094017 | 85 | 32 | 3.0 | 10.0 | 0.00 | 0.00 | 0.00 | 73 | 1004.1 |
| 20260904093948 | 85 | 16 | 2.0 | 6.0 | 0.00 | 0.00 | 0.00 | 73 | 1004.1 |
| 20260904093517 | 84 | 265 | 5.0 | 9.0 | 0.00 | 0.00 | 0.00 | 73 | 1004.1 |
| 20260904093438 | 84 | 221 | 2.0 | 9.0 | 0.00 | 0.00 | 0.00 | 73 | 1004.1 |
| 20260904093017 | 84 | 328 | 2.0 | 14.0 | 0.00 | 0.00 | 0.00 | 73 | 1004.1 |
| 20260904092929 | 84 | 260 | 3.0 | 14.0 | 0.00 | 0.00 | 0.00 | 72 | 1004.1 |
| 20260904092517 | 85 | 31 | 2.0 | 9.0 | 0.00 | 0.00 | 0.00 | 72 | 1004.0 |
| 20260904092418 | 85 | 169 | 4.0 | 9.0 | 0.00 | 0.00 | 0.00 | 71 | 1004.0 |
| 20260904092017 | 86 | 169 | 1.0 | 4.0 | 0.00 | 0.00 | 0.00 | 72 | 1004.0 |
| 20260904091909 | 85 | 31 | 1.0 | 4.0 | 0.00 | 0.00 | 0.00 | 72 | 1004.0 |
| 20260904091517 | 86 | 68 | 1.0 | 5.0 | 0.00 | 0.00 | 0.00 | 71 | 1003.9 |
| 20260904091358 | 86 | 247 | 1.0 | 8.0 | 0.00 | 0.00 | 0.00 | 72 | 1003.9 |
| 20260904091017 | 85 | 231 | 3.0 | 8.0 | 0.00 | 0.00 | 0.00 | 72 | 1003.8 |
| 20260904090848 | 85 | 252 | 4.0 | 7.0 | 0.00 | 0.00 | 0.00 | 72 | 1003.8 |
| 20260904090518 | 85 | 29 | 2.0 | 7.0 | 0.00 | 0.00 | 0.00 | 72 | 1003.8 |
| 20260904090338 | 85 | 316 | 2.0 | 13.0 | 0.00 | 0.00 | 0.00 | 72 | 1003.8 |
| 20260904090017 | 84 | 263 | 5.0 | 13.0 | 0.00 | 0.00 | 0.00 | 72 | 1003.8 |
| 20260904085828 | 84 | 41 | 4.0 | 10.0 | 0.00 | 0.00 | 0.00 | 72 | 1003.9 |
| 20260904085517 | 84 | 328 | 5.0 | 16.0 | 0.00 | 0.00 | 0.00 | 72 | 1003.8 |
| 20260904085318 | 84 | 359 | 10.0 | 16.0 | 0.00 | 0.00 | 0.00 | 72 | 1003.7 |
| 20260904085016 | 85 | 28 | 8.0 | 14.0 | 0.00 | 0.00 | 0.00 | 71 | 1003.6 |
| 20260904084517 | 85 | 235 | 2.0 | 8.0 | 0.00 | 0.00 | 0.00 | 71 | 1003.6 |
| 20260904084258 | 85 | 9 | 2.0 | 14.0 | 0.00 | 0.00 | 0.00 | 71 | 1003.6 |
| 20260904084017 | 85 | 67 | 4.0 | 14.0 | 0.00 | 0.00 | 0.00 | 71 | 1003.5 |
| 20260904083748 | 85 | 6 | 6.0 | 14.0 | 0.00 | 0.00 | 0.00 | 71 | 1003.5 |
| 20260904083516 | 86 | 41 | 4.0 | 9.0 | 0.00 | 0.00 | 0.00 | 70 | 1003.6 |
| 20260904083238 | 86 | 243 | 4.0 | 7.0 | 0.00 | 0.00 | 0.00 | 70 | 1003.5 |
| 20260904083017 | 86 | 15 | 4.0 | 7.0 | 0.00 | 0.00 | 0.00 | 70 | 1003.5 |
| 20260904082728 | 86 | 183 | 2.0 | 8.0 | 0.00 | 0.00 | 0.00 | 71 | 1003.5 |
| 20260904082517 | 85 | 211 | 2.0 | 9.0 | 0.00 | 0.00 | 0.00 | 71 | 1003.5 |
| 20260904082217 | 85 | 322 | 3.0 | 9.0 | 0.00 | 0.00 | 0.00 | 71 | 1003.5 |
| 20260904082016 | 85 | 107 | 4.0 | 8.0 | 0.00 | 0.00 | 0.00 | 70 | 1003.5 |
| 20260904081708 | 85 | 313 | 3.0 | 9.0 | 0.00 | 0.00 | 0.00 | 70 | 1003.5 |
| 20260904081516 | 85 | 18 | 2.0 | 10.0 | 0.00 | 0.00 | 0.00 | 70 | 1003.5 |
| 20260904081158 | 86 | 10 | 1.0 | 9.0 | 0.00 | 0.00 | 0.00 | 70 | 1003.5 |
| 20260904081017 | 86 | 345 | 3.0 | 9.0 | 0.00 | 0.00 | 0.00 | 70 | 1003.5 |
| 20260904080647 | 86 | 353 | 2.0 | 9.0 | 0.00 | 0.00 | 0.00 | 70 | 1003.5 |
| 20260904080517 | 86 | 277 | 1.0 | 9.0 | 0.00 | 0.00 | 0.00 | 70 | 1003.5 |
| 20260904080138 | 85 | 220 | 3.0 | 22.0 | 0.00 | 0.00 | 0.00 | 70 | 1003.5 |
| 20260904080016 | 85 | 341 | 5.0 | 22.0 | 0.00 | 0.00 | 0.00 | 70 | 1003.4 |
| 20260904075628 | 86 | 45 | 3.0 | 12.0 | 0.00 | 0.00 | 0.00 | 69 | 1003.4 |
| 20260904075517 | 86 | 16 | 5.0 | 13.0 | 0.00 | 0.00 | 0.00 | 69 | 1003.4 |
| 20260904075118 | 86 | 228 | 6.0 | 13.0 | 0.00 | 0.00 | 0.00 | 69 | 1003.4 |
| 20260904075017 | 86 | 342 | 3.0 | 11.0 | 0.00 | 0.00 | 0.00 | 69 | 1003.4 |
| 20260904074607 | 87 | 162 | 2.0 | 11.0 | 0.00 | 0.00 | 0.00 | 68 | 1003.4 |
| 20260904074516 | 87 | 71 | 6.0 | 11.0 | 0.00 | 0.00 | 0.00 | 68 | 1003.4 |
| 20260904074016 | 89 | 349 | 4.0 | 10.0 | 0.00 | 0.00 | 0.00 | 67 | 1003.3 |
| 20260904073548 | 89 | 72 | 3.0 | 10.0 | 0.00 | 0.00 | 0.00 | 66 | 1003.3 |
| 20260904073517 | 89 | 40 | 3.0 | 10.0 | 0.00 | 0.00 | 0.00 | 66 | 1003.3 |
| 20260904073037 | 90 | 280 | 6.0 | 9.0 | 0.00 | 0.00 | 0.00 | 66 | 1003.3 |
| 20260904073016 | 90 | 275 | 6.0 | 9.0 | 0.00 | 0.00 | 0.00 | 66 | 1003.3 |
| 20260904072528 | 90 | 316 | 2.0 | 12.0 | 0.00 | 0.00 | 0.00 | 67 | 1003.3 |
| 20260904072516 | 90 | 277 | 2.0 | 12.0 | 0.00 | 0.00 | 0.00 | 67 | 1003.3 |
| 20260904072018 | 90 | 34 | 3.0 | 10.0 | 0.00 | 0.00 | 0.00 | 66 | 1003.3 |
| 20260904072015 | 90 | 81 | 3.0 | 10.0 | 0.00 | 0.00 | 0.00 | 66 | 1003.3 |
| 20260904071516 | 90 | 311 | 4.0 | 14.0 | 0.00 | 0.00 | 0.00 | 66 | 1003.2 |
| 20260904071016 | 90 | 5 | 8.0 | 13.0 | 0.00 | 0.00 | 0.00 | 64 | 1003.2 |
| 20260904070957 | 90 | 67 | 7.0 | 13.0 | 0.00 | 0.00 | 0.00 | 64 | 1003.2 |
| 20260904070517 | 92 | 41 | 4.0 | 11.0 | 0.00 | 0.00 | 0.00 | 63 | 1003.2 |
| 20260904070448 | 92 | 8 | 6.0 | 11.0 | 0.00 | 0.00 | 0.00 | 63 | 1003.3 |
| 20260904070016 | 93 | 338 | 7.0 | 13.0 | 0.00 | 0.00 | 0.00 | 61 | 1003.2 |
| 20260904065937 | 93 | 50 | 5.0 | 9.0 | 0.00 | 0.00 | 0.00 | 61 | 1003.2 |
| 20260904065516 | 92 | 315 | 5.0 | 10.0 | 0.00 | 0.00 | 0.00 | 63 | 1003.2 |
| 20260904065427 | 92 | 290 | 6.0 | 11.0 | 0.00 | 0.00 | 0.00 | 64 | 1003.2 |
| 20260904065016 | 91 | 347 | 4.0 | 11.0 | 0.00 | 0.00 | 0.00 | 64 | 1003.2 |
| 20260904064918 | 91 | 26 | 2.0 | 10.0 | 0.00 | 0.00 | 0.00 | 65 | 1003.2 |
| 20260904064515 | 90 | 248 | 5.0 | 11.0 | 0.00 | 0.00 | 0.00 | 66 | 1003.3 |
| 20260904064407 | 90 | 279 | 4.0 | 15.0 | 0.00 | 0.00 | 0.00 | 67 | 1003.3 |
| 20260904064016 | 89 | 278 | 8.0 | 16.0 | 0.00 | 0.00 | 0.00 | 66 | 1003.2 |
| 20260904063857 | 90 | 246 | 10.0 | 16.0 | 0.00 | 0.00 | 0.00 | 65 | 1003.2 |
| 20260904063516 | 89 | 281 | 6.0 | 13.0 | 0.00 | 0.00 | 0.00 | 66 | 1003.3 |
| 20260904063346 | 90 | 244 | 6.0 | 13.0 | 0.00 | 0.00 | 0.00 | 65 | 1003.2 |
| 20260904063015 | 90 | 274 | 3.0 | 8.0 | 0.00 | 0.00 | 0.00 | 66 | 1003.2 |
| 20260904062837 | 90 | 33 | 3.0 | 8.0 | 0.00 | 0.00 | 0.00 | 66 | 1003.2 |
| 20260904062516 | 89 | 261 | 5.0 | 11.0 | 0.00 | 0.00 | 0.00 | 67 | 1003.2 |
| 20260904062327 | 89 | 267 | 7.0 | 11.0 | 0.00 | 0.00 | 0.00 | 66 | 1003.2 |
| 20260904062016 | 89 | 217 | 6.0 | 11.0 | 0.00 | 0.00 | 0.00 | 67 | 1003.2 |
| 20260904061817 | 89 | 200 | 6.0 | 11.0 | 0.00 | 0.00 | 0.00 | 66 | 1003.1 |
| 20260904061515 | 90 | 247 | 7.0 | 11.0 | 0.00 | 0.00 | 0.00 | 65 | 1003.1 |
| 20260904061307 | 90 | 334 | 6.0 | 11.0 | 0.00 | 0.00 | 0.00 | 65 | 1003.1 |
| 20260904061015 | 91 | 264 | 6.0 | 11.0 | 0.00 | 0.00 | 0.00 | 65 | 1003.2 |
| 20260904060757 | 91 | 219 | 6.0 | 10.0 | 0.00 | 0.00 | 0.00 | 64 | 1003.2 |
| 20260904060516 | 91 | 223 | 5.0 | 10.0 | 0.00 | 0.00 | 0.00 | 64 | 1003.2 |
| 20260904060247 | 91 | 245 | 4.0 | 10.0 | 0.00 | 0.00 | 0.00 | 64 | 1003.2 |
| 20260904060015 | 91 | 258 | 2.0 | 9.0 | 0.00 | 0.00 | 0.00 | 65 | 1003.1 |
| 20260904055736 | 91 | 240 | 4.0 | 10.0 | 0.00 | 0.00 | 0.00 | 65 | 1003.1 |
| 20260904055515 | 91 | 293 | 6.0 | 10.0 | 0.00 | 0.00 | 0.00 | 66 | 1003.1 |
| 20260904055227 | 90 | 299 | 4.0 | 10.0 | 0.00 | 0.00 | 0.00 | 66 | 1003.2 |
| 20260904055016 | 90 | 223 | 5.0 | 9.0 | 0.00 | 0.00 | 0.00 | 67 | 1003.1 |
| 20260904054716 | 89 | 355 | 3.0 | 14.0 | 0.00 | 0.00 | 0.00 | 67 | 1003.2 |
| 20260904054515 | 89 | 263 | 8.0 | 14.0 | 0.00 | 0.00 | 0.00 | 66 | 1003.2 |
| 20260904054206 | 89 | 251 | 5.0 | 15.0 | 0.00 | 0.00 | 0.00 | 67 | 1003.1 |
| 20260904054015 | 89 | 275 | 8.0 | 15.0 | 0.00 | 0.00 | 0.00 | 68 | 1003.2 |
| 20260904053657 | 88 | 224 | 6.0 | 11.0 | 0.00 | 0.00 | 0.00 | 67 | 1003.2 |
| 20260904053515 | 89 | 239 | 6.0 | 9.0 | 0.00 | 0.00 | 0.00 | 67 | 1003.2 |
| 20260904053147 | 87 | 279 | 4.0 | 14.0 | 0.00 | 0.00 | 0.00 | 68 | 1003.2 |
| 20260904053016 | 87 | 260 | 6.0 | 14.0 | 0.00 | 0.00 | 0.00 | 66 | 1003.3 |
| 20260904052636 | 88 | 184 | 5.0 | 10.0 | 0.00 | 0.00 | 0.00 | 66 | 1003.2 |
| 20260904052515 | 88 | 133 | 3.0 | 10.0 | 0.00 | 0.00 | 0.00 | 67 | 1003.2 |
| 20260904052126 | 88 | 213 | 3.0 | 9.0 | 0.00 | 0.00 | 0.00 | 67 | 1003.2 |
| 20260904052015 | 87 | 248 | 2.0 | 10.0 | 0.00 | 0.00 | 0.00 | 69 | 1003.2 |
| 20260904051617 | 86 | 216 | 7.0 | 11.0 | 0.00 | 0.00 | 0.00 | 69 | 1003.2 |
| 20260904051515 | 86 | 198 | 6.0 | 11.0 | 0.00 | 0.00 | 0.00 | 69 | 1003.2 |
| 20260904051106 | 86 | 215 | 5.0 | 12.0 | 0.00 | 0.00 | 0.00 | 69 | 1003.3 |
| 20260904050556 | 85 | 223 | 9.0 | 14.0 | 0.00 | 0.00 | 0.00 | 71 | 1003.3 |
| 20260904050515 | 85 | 232 | 10.0 | 14.0 | 0.00 | 0.00 | 0.00 | 70 | 1003.3 |
| 20260904050046 | 86 | 211 | 8.0 | 12.0 | 0.00 | 0.00 | 0.00 | 70 | 1003.4 |
| 20260904050015 | 85 | 213 | 9.0 | 12.0 | 0.00 | 0.00 | 0.00 | 70 | 1003.5 |
| 20260904045537 | 86 | 198 | 7.0 | 12.0 | 0.00 | 0.00 | 0.00 | 69 | 1003.5 |
| 20260904045515 | 86 | 209 | 8.0 | 12.0 | 0.00 | 0.00 | 0.00 | 69 | 1003.5 |
| 20260904045026 | 86 | 235 | 7.0 | 13.0 | 0.00 | 0.00 | 0.00 | 68 | 1003.5 |
| 20260904045014 | 86 | 187 | 7.0 | 13.0 | 0.00 | 0.00 | 0.00 | 68 | 1003.5 |
| 20260904044517 | 86 | 228 | 9.0 | 14.0 | 0.00 | 0.00 | 0.00 | 68 | 1003.5 |
| 20260904044515 | 86 | 219 | 9.0 | 14.0 | 0.00 | 0.00 | 0.00 | 68 | 1003.5 |
| 20260904044015 | 86 | 282 | 9.0 | 13.0 | 0.00 | 0.00 | 0.00 | 69 | 1003.6 |
| 20260904044006 | 86 | 222 | 9.0 | 13.0 | 0.00 | 0.00 | 0.00 | 68 | 1003.5 |